Time,TemperatureF,DewpointF,PressureIn,WindDirection,WindDirectionDegrees,WindSpeedMPH,WindSpeedGustMPH,Humidity,HourlyPrecipIn,Conditions,Clouds,dailyrainin,SoftwareType,DateUTC
2013-02-12 00:00:00,57.5,56.1,29.95,NE,45,6.0,15.0,95,0.00,,,-99.99,WeatherLink 5.6,2013-02-12 06:00:00,
2013-02-12 00:30:00,57.3,55.9,29.95,NE,45,3.0,11.0,95,0.00,,,-99.99,WeatherLink 5.6,2013-02-12 06:30:00,
2013-02-12 01:00:00,57.5,56.1,29.95,NE,45,5.0,11.0,95,0.00,,,-99.99,WeatherLink 5.6,2013-02-12 07:00:00,
2013-02-12 01:30:00,57.5,56.1,29.95,NE,45,4.0,11.0,95,0.00,,,-99.99,WeatherLink 5.6,2013-02-12 07:30:00,
2013-02-12 02:00:00,57.5,56.1,29.95,NE,45,3.0,10.0,95,0.00,,,-99.99,WeatherLink 5.6,2013-02-12 08:00:00,
2013-02-12 02:30:00,57.3,55.9,29.94,NE,45,4.0,10.0,95,0.00,,,-99.99,WeatherLink 5.6,2013-02-12 08:30:00,
2013-02-12 03:00:00,57.2,55.8,29.94,NE,45,6.0,13.0,95,0.01,,,-99.99,WeatherLink 5.6,2013-02-12 09:00:00,
2013-02-12 03:30:00,57.0,55.6,29.93,NE,45,6.0,13.0,95,0.01,,,-99.99,WeatherLink 5.6,2013-02-12 09:30:00,
2013-02-12 04:00:00,56.9,55.5,29.91,NE,45,6.0,14.0,95,0.00,,,-99.99,WeatherLink 5.6,2013-02-12 10:00:00,
2013-02-12 04:30:00,56.9,55.5,29.91,NE,45,7.0,15.0,95,0.00,,,-99.99,WeatherLink 5.6,2013-02-12 10:30:00,
2013-02-12 05:00:00,56.9,55.5,29.90,NE,45,7.0,15.0,95,0.00,,,-99.99,WeatherLink 5.6,2013-02-12 11:00:00,
2013-02-12 05:30:00,57.2,55.8,29.90,ENE,67,5.0,11.0,95,0.00,,,-99.99,WeatherLink 5.6,2013-02-12 11:30:00,
2013-02-12 06:00:00,57.3,55.9,29.89,NE,45,5.0,12.0,95,0.00,,,-99.99,WeatherLink 5.6,2013-02-12 12:00:00,
2013-02-12 06:30:00,57.2,55.5,29.89,NE,45,6.0,12.0,94,0.00,,,-99.99,WeatherLink 5.6,2013-02-12 12:30:00,
2013-02-12 07:00:00,57.2,55.5,29.89,ENE,67,5.0,13.0,94,0.00,,,-99.99,WeatherLink 5.6,2013-02-12 13:00:00,
2013-02-12 07:30:00,57.2,55.5,29.87,ENE,67,6.0,14.0,94,0.00,,,-99.99,WeatherLink 5.6,2013-02-12 13:30:00,
2013-02-12 08:00:00,57.2,55.5,29.86,ENE,67,5.0,12.0,94,0.00,,,-99.99,WeatherLink 5.6,2013-02-12 14:00:00,
2013-02-12 08:30:00,57.5,56.1,29.88,ENE,67,5.0,11.0,95,0.00,,,-99.99,WeatherLink 5.6,2013-02-12 14:30:00,
2013-02-12 09:00:00,57.8,56.1,29.88,ENE,67,4.0,11.0,94,0.00,,,-99.99,WeatherLink 5.6,2013-02-12 15:00:00,
2013-02-12 09:30:00,58.3,56.6,29.88,ENE,67,5.0,12.0,94,0.00,,,-99.99,WeatherLink 5.6,2013-02-12 15:30:00,
2013-02-12 10:00:00,58.6,56.9,29.87,ENE,67,4.0,13.0,94,0.00,,,-99.99,WeatherLink 5.6,2013-02-12 16:00:00,
2013-02-12 10:30:00,59.2,57.8,29.85,ENE,67,5.0,12.0,95,0.00,,,-99.99,WeatherLink 5.6,2013-02-12 16:30:00,
2013-02-12 11:00:00,59.3,57.9,29.84,ENE,67,5.0,12.0,95,0.01,,,-99.99,WeatherLink 5.6,2013-02-12 17:00:00,
2013-02-12 11:30:00,59.6,58.5,29.83,ENE,67,3.0,11.0,96,0.01,,,-99.99,WeatherLink 5.6,2013-02-12 17:30:00,
2013-02-12 12:00:00,60.2,59.1,29.80,ENE,67,3.0,10.0,96,0.00,,,-99.99,WeatherLink 5.6,2013-02-12 18:00:00,
2013-02-12 12:30:00,60.9,59.8,29.77,East,90,4.0,10.0,96,0.00,,,-99.99,WeatherLink 5.6,2013-02-12 18:30:00,
2013-02-12 13:00:00,61.6,60.4,29.74,East,90,4.0,10.0,96,0.01,,,-99.99,WeatherLink 5.6,2013-02-12 19:00:00,
2013-02-12 13:30:00,61.6,60.7,29.73,ENE,67,3.0,8.0,97,0.16,,,-99.99,WeatherLink 5.6,2013-02-12 19:30:00,
2013-02-12 14:00:00,62.3,61.4,29.71,ENE,67,1.0,6.0,97,0.16,,,-99.99,WeatherLink 5.6,2013-02-12 20:00:00,
2013-02-12 14:30:00,63.1,62.2,29.69,North,-999,0.0,0.0,97,0.02,,,-99.99,WeatherLink 5.6,2013-02-12 20:30:00,
2013-02-12 15:00:00,66.8,66.2,29.69,SSW,202,2.0,14.0,98,0.01,,,-99.99,WeatherLink 5.6,2013-02-12 21:00:00,
2013-02-12 15:30:00,68.1,67.5,29.68,SSW,202,8.0,20.0,98,0.00,,,-99.99,WeatherLink 5.6,2013-02-12 21:30:00,
2013-02-12 16:00:00,68.1,67.5,29.68,SSW,202,8.0,20.0,98,0.00,,,-99.99,WeatherLink 5.6,2013-02-12 22:00:00,
2013-02-12 16:30:00,67.4,66.5,29.68,SSW,202,6.0,18.0,97,0.00,,,-99.99,WeatherLink 5.6,2013-02-12 22:30:00,
2013-02-12 17:00:00,67.1,66.2,29.68,SSW,202,5.0,15.0,97,0.00,,,-99.99,WeatherLink 5.6,2013-02-12 23:00:00,
2013-02-12 17:30:00,67.4,66.5,29.68,SSW,202,5.0,17.0,97,0.00,,,-99.99,WeatherLink 5.6,2013-02-12 23:30:00,
2013-02-12 18:00:00,67.4,66.8,29.68,SSW,202,6.0,18.0,98,0.00,,,-99.99,WeatherLink 5.6,2013-02-13 00:00:00,
2013-02-12 18:30:00,67.1,66.2,29.68,SSW,202,6.0,16.0,97,0.00,,,-99.99,WeatherLink 5.6,2013-02-13 00:30:00,
2013-02-12 19:00:00,67.1,66.2,29.68,SW,225,4.0,15.0,97,0.00,,,-99.99,WeatherLink 5.6,2013-02-13 01:00:00,
2013-02-12 19:30:00,66.8,65.9,29.69,SSW,202,4.0,14.0,97,0.00,,,-99.99,WeatherLink 5.6,2013-02-13 01:30:00,
2013-02-12 20:00:00,67.3,66.7,29.70,SW,225,4.0,14.0,98,0.00,,,-99.99,WeatherLink 5.6,2013-02-13 02:00:00,
2013-02-12 20:30:00,66.9,66.3,29.69,SW,225,3.0,14.0,98,0.00,,,-99.99,WeatherLink 5.6,2013-02-13 02:30:00,
2013-02-12 21:00:00,67.9,67.3,29.69,SW,225,4.0,13.0,98,0.00,,,-99.99,WeatherLink 5.6,2013-02-13 03:00:00,
2013-02-12 21:30:00,67.8,67.2,29.69,SW,225,3.0,10.0,98,0.00,,,-99.99,WeatherLink 5.6,2013-02-13 03:30:00,
2013-02-12 22:00:00,66.9,66.3,29.69,SW,225,2.0,10.0,98,0.00,,,-99.99,WeatherLink 5.6,2013-02-13 04:00:00,
2013-02-12 22:30:00,66.3,65.7,29.71,SW,225,1.0,9.0,98,0.00,,,-99.99,WeatherLink 5.6,2013-02-13 04:30:00,
2013-02-12 23:00:00,67.1,66.5,29.71,West,270,3.0,10.0,98,0.00,,,-99.99,WeatherLink 5.6,2013-02-13 05:00:00,
2013-02-12 23:30:00,66.1,65.5,29.71,SW,225,3.0,10.0,98,0.00,,,-99.99,WeatherLink 5.6,2013-02-13 05:30:00,